Weather in Belovo

Russia / Chelyabinsk Oblast     54°25′17″N   60°08′02″E
temp.,
°C
wind,
m/s
gust,
m/s
humid.,
%
clouds,
%
prec.,
mm/h
press.,
hPa
HPBL,
m
13 april, tue
tue1323:00+8nne269476 0.4 1039164
02:00+5nne2292100 0.0 103927
05:00+4nne229489 0.0 104114
08:00+5ne119788 0.0 1042156
11:00+8sse238656 0.0 1041426
14:00+12s34669 0.0 1039919
17:00+13ssw44630 0.0 1038930
20:00+10s34781 0.0 103848
14 april, wed
wed1423:00+7ssw47871 0.0 1038117
02:00+6ssw37915 0.0 1036115
05:00+5sw369333 0.0 1036111
08:00+6sw248560 0.0 1035124
11:00+12sw22675 0.0 1034325
14:00+15ssw33595 0.0 1032589
17:00+16sw33515 0.0 1030662
20:00+11sw33615 0.0 103022
15 april, thu
thu1523:00+9sw33655 0.0 103020
02:00+7sw32665 0.0 102918
05:00+5sw33675 0.0 102820
08:00+7wsw24645 0.0 1027108
11:00+13sw33425 0.0 1025297
14:00+17sw343257 0.0 1023639
17:00+17sw353563 0.0 1021750
20:00+12ssw335498 0.0 102033
16 april, fri
fri1623:00
02:00+8nne2267100 0.0 101911
05:00+7nnw11705 0.0 101810
08:00+9wnw11666 0.0 101742
11:00+14nw11535 0.0 1016478
14:00+16nw23425 0.0 10151709
17:00+14nne666394 0.1 1014756
20:00+8ne6987100 0.1 1016434
17 april, sat
sat1723:00+4nne7992100 0.1 1016487
02:00+3ne5796100 0.1 1018615
05:00+2ne4999100 1.1 1019386
08:00+1ne4899100 1.3 1019268
11:00+3ene4484100 1.8 1018710
14:00+5ne2266100 0.1 10171117
17:00+5nw227099 0.3 1016920
20:00+3nw61072100 1.0 1015496